sat.trackr.live / text

‹ back to catalog

STARLINK-11647 [DTC]

NORAD 63191 · 2025-048J

PAYLOAD ACTIVE UNKNOWN

§ Identity

Operator
Country
US
Launch date
2025-03-13
Launch site
AFETR
Launch vehicle
Mass (kg)
RCS (m²)

Purposes: comms

External: N2YO · Heavens-Above · Gunter

§ Orbital elements

Epoch: 2026-09-20T21:30:25.801344Z

Period
91.67 min
Inclination
42.9987°
Eccentricity
0.0001787
Mean motion
15.70904268 rev/d
Perigee alt
355.1 km
Apogee alt
357.5 km
Semi-major
6,734.4 km
B*
8.5890e-4
RAAN
223.1128°
Arg perigee
251.9080°
Mean anomaly
108.1593°
Rev number
8,922

§ Raw data

STARLINK-11647 [DTC]1 63191U 25048J   26263.89613196  .00111554  00000+0  85890-3 0  99902 63191  42.9987 223.1128 0001787 251.9080 108.1593 15.70904268 89228

JSON: /api/v1/satellites/63191 · /tle

For live sub-satellite position, see the globe view (requires WebGL).

§ Visibility from observer

Set your observer location to see the next 7 days of passes ≥ 10°. The values pass through the URL so the page stays shareable.

No JS? Fill the form by hand. The geolocation button needs JavaScript.